カタログに戻る

STARLINK-37743

運用中通信SSO
NORAD 69339·PAYLOAD·🇺🇸 United States

打ち上げ Jun 3, 2026 から Vandenberg Space Force Base

Loading…

次のパス (今後24時間)

TLE

最新Source: CelesTrak SupGP

元期: Sep 14, 2026, 21:01 UTC

1 69339C 26122L   26257.87618056  .00015343  00000+0  47637-3 0  2578
2 69339  97.2822 286.5637 0001541  92.5646  12.7950 15.33424580    12

AllMySatでSTARLINK-37743をリアルタイム追跡

Download on the App Store